Temperature
10 10 11 11 12 11 12 12 11 11 11 11 11 11 11 10 9 9 8 7 6 5 5 4 4 3 3 3 2 2 1 0 -0 -0 -1 -1 -1 -1 -2 -2 -3 -3 -3
9 10 10 10 10 10 11 11 10 9 9 9 9 9 9 8 8 7 6 5 5 4 4 3 2 2 2 2 1 0 -0 -1 -1 -2 -2 -2 -2 -3 -3 -4 -4 -4 -4
8 8 9 9 9 9 9 9 8 8 8 8 8 8 8 7 6 5 4 4 3 3 3 2 2 1 1 1 -0 -0 -1 -2 -2 -3 -3 -4 -4 -4 -5 -5 -5 -5 -5
7 7 7 7 7 7 7 7 7 7 7 7 7 6 6 5 4 3 3 3 2 2 2 1 1 1 0 -0 -1 -1 -2 -2 -3 -4 -5 -5 -5 -5 -6 -7 -7 -6 -5
6 6 6 6 6 6 6 6 6 6 6 5 5 4 4 3 2 2 2 2 2 1 1 1 0 -0 -1 -1 -2 -2 -3 -4 -4 -5 -6 -6 -6 -7 -7 -8 -8 -7 -7
5 5 5 5 5 4 4 4 4 4 3 3 3 2 2 2 1 1 1 1 1 1 0 -0 -1 -1 -2 -2 -3 -4 -4 -5 -6 -7 -7 -7 -7 -7 -8 -8 -8 -9 -9
4 3 3 3 3 3 3 2 2 2 1 1 1 1 1 1 1 1 1 0 0 -0 -1 -1 -2 -2 -3 -3 -4 -4 -4 -5 -7 -8 -8 -8 -8 -8 -8 -8 -9 -9 -9
2 2 2 2 2 1 1 1 0 0 0 0 0 0 0 0 0 -0 -0 -0 -1 -1 -2 -2 -3 -3 -3 -4 -4 -5 -5 -6 -6 -7 -7 -8 -8 -8 -9 -9 -9 -9 -8
1 0 0 0 0 0 -0 -0 -0 -0 -0 -0 -0 -0 -0 -0 -1 -1 -1 -1 -2 -2 -3 -3 -4 -4 -4 -5 -7 -7 -6 -6 -7 -7 -7 -7 -8 -8 -8 -8 -8 -8 -8
-0 -0 -0 -0 -0 -0 -0 -1 -1 -0 -0 -0 -1 -1 -1 -1 -2 -2 -2 -2 -3 -3 -3 -4 -5 -5 -6 -7 -8 -8 -7 -7 -7 -6 -6 -7 -7 -7 -7 -8 -8 -8 -9
-1 -1 -1 -1 -1 -1 -1 -1 -1 -0 -1 -1 -1 -1 -2 -2 -3 -3 -3 -3 -4 -4 -4 -5 -5 -6 -7 -8 -8 -8 -8 -8 -8 -7 -7 -7 -7 -7 -7 -7 -8 -8 -9
-1 -1 -1 -1 -0 -1 -1 -1 -1 -1 -1 -1 -2 -2 -2 -3 -3 -4 -4 -5 -5 -5 -5 -5 -6 -7 -7 -7 -7 -7 -8 -8 -7 -7 -7 -7 -7 -7 -7 -7 -7 -8 -8
-1 -1 -1 -0 -0 -1 -1 -1 -1 -2 -2 -2 -2 -3 -3 -4 -4 -5 -5 -5 -6 -6 -6 -7 -7 -7 -7 -7 -7 -7 -7 -7 -7 -7 -7 -7 -7 -7 -7 -7 -7 -7 -7
-0 -0 -1 -0 -1 -1 -1 -1 -2 -2 -2 -2 -3 -3 -4 -4 -5 -5 -5 -6 -6 -6 -6 -7 -7 -7 -7 -7 -7 -7 -7 -8 -8 -8 -7 -7 -7 -7 -7 -7 -7 -7 -7
-0 -0 -0 -1 -1 -1 -1 -2 -2 -2 -3 -3 -4 -4 -4 -5 -6 -6 -6 -7 -7 -7 -7 -7 -7 -7 -7 -7 -7 -7 -7 -7 -7 -7 -7 -7 -7 -7 -7 -7 -8 -8 -8
-0 -0 -1 -1 -1 -2 -2 -2 -3 -3 -3 -4 -4 -5 -5 -6 -6 -6 -7 -7 -7 -8 -8 -8 -8 -8 -8 -8 -7 -7 -7 -7 -8 -8 -8 -8 -8 -8 -7 -7 -7 -8 -8
-1 -1 -1 -1 -2 -2 -2 -3 -3 -3 -4 -4 -5 -5 -6 -6 -7 -7 -7 -8 -8 -8 -8 -8 -8 -8 -8 -8 -8 -8 -7 -8 -8 -8 -8 -8 -8 -8 -8 -7 -8 -8 -8
-1 -1 -1 -2 -2 -2 -3 -3 -3 -4 -4 -5 -5 -6 -6 -7 -7 -8 -8 -8 -8 -8 -8 -8 -8 -8 -8 -8 -8 -8 -8 -8 -8 -8 -8 -8 -8 -8 -8 -8 -8 -8 -8
-1 -1 -2 -2 -2 -3 -3 -3 -4 -4 -5 -6 -6 -7 -7 -7 -8 -8 -8 -8 -8 -8 -8 -8 -8 -8 -8 -8 -8 -8 -8 -8 -8 -8 -8 -8 -8 -8 -8 -8 -8 -8 -8
-1 -2 -2 -2 -3 -3 -3 -4 -4 -5 -6 -6 -7 -7 -7 -8 -8 -8 -9 -9 -9 -9 -8 -8 -8 -8 -8 -8 -8 -8 -8 -8 -8 -8 -8 -8 -8 -8 -8 -8 -8 -8 -8
-2 -2 -2 -3 -3 -3 -4 -5 -5 -6 -6 -7 -7 -8 -8 -8 -8 -9 -9 -9 -9 -9 -9 -8 -8 -8 -8 -8 -8 -8 -8 -8 -8 -8 -8 -8 -8 -8 -7 -8 -8 -8 -8
-2 -2 -3 -3 -4 -4 -4 -5 -6 -6 -7 -7 -8 -8 -9 -9 -9 -9 -9 -9 -9 -9 -9 -9 -8 -8 -8 -8 -8 -8 -8 -8 -8 -8 -8 -8 -8 -8 -7 -7 -8 -8 -8
-2 -3 -3 -4 -4 -4 -5 -6 -6 -7 -7 -8 -8 -8 -9 -9 -9 -9 -9 -9 -9 -9 -9 -9 -9 -8 -8 -8 -8 -8 -8 -8 -8 -8 -8 -8 -8 -8 -8 -8 -8 -8 -8
-3 -3 -3 -4 -4 -5 -5 -6 -7 -7 -8 -8 -8 -8 -9 -9 -9 -9 -9 -9 -9 -9 -9 -9 -9 -8 -8 -8 -8 -8 -8 -8 -8 -8 -8 -8 -8 -8 -8 -8 -8 -8 -8
-3 -3 -4 -4 -5 -5 -6 -6 -7 -7 -8 -8 -8 -9 -9 -9 -9 -9 -9 -9 -9 -8 -8 -8 -8 -8 -8 -8 -8 -8 -8 -8 -8 -8 -8 -8 -8 -8 -8 -8 -8 -8 -8
-3 -4 -4 -5 -5 -6 -6 -7 -7 -8 -8 -8 -8 -9 -9 -9 -9 -9 -9 -9 -8 -8 -8 -8 -8 -8 -8 -8 -8 -8 -8 -8 -8 -8 -8 -8 -8 -8 -8 -8 -8 -8 -8
Wind_Speed
7 6 4 3 2 3 4 6 7 8 11 12 12 13 13 13 13 13 12 12 12 10 8 7 6 5 4 3 2 2 3 3 5 4 3 3 4 6 12 15 16 16 17
6 4 2 1 2 4 5 7 9 11 11 12 13 13 13 13 13 14 14 12 11 10 8 7 5 4 4 2 2 3 3 4 5 6 3 3 6 7 7 8 13 16 17
5 5 5 5 6 7 8 9 10 11 12 12 13 14 14 13 13 13 13 12 11 9 8 6 5 3 2 1 2 3 3 4 4 4 5 4 5 5 6 7 9 11 17
6 6 7 7 8 9 9 10 11 12 13 13 14 14 14 14 14 13 13 12 10 8 7 5 4 2 2 2 3 4 4 4 4 5 6 5 5 6 5 6 9 7 10
8 9 9 9 10 11 12 12 13 13 14 15 15 15 14 12 12 13 11 10 9 7 5 4 2 1 2 2 3 4 4 4 4 5 6 6 6 5 6 6 11 10 10
10 11 11 12 13 13 13 14 14 14 14 15 14 14 13 11 16 15 11 9 7 6 5 3 2 2 3 5 7 8 8 5 5 5 6 7 8 7 8 9 11 12 10
10 11 11 12 13 14 14 14 14 14 14 14 13 13 13 13 15 14 12 8 6 5 4 2 1 1 3 3 7 9 9 12 13 9 8 9 9 9 10 12 11 12 13
10 11 11 12 13 13 14 13 12 11 12 12 11 11 10 11 13 12 11 7 5 4 3 2 1 3 4 6 6 6 6 7 10 8 8 10 10 10 11 11 11 10 10
9 9 10 11 12 12 12 12 10 11 10 9 9 9 9 8 9 9 9 5 4 3 1 0 2 4 9 11 6 5 7 7 12 16 18 18 20 22 18 9 7 9 12
9 9 9 10 11 11 11 10 9 9 9 9 9 8 7 4 6 7 7 3 3 1 0 2 5 7 10 11 6 5 7 8 8 9 10 13 13 15 16 8 5 8 8
8 9 10 10 10 10 10 9 9 9 9 9 8 7 6 6 6 7 7 3 1 0 1 2 4 10 12 13 11 5 9 11 5 5 8 9 8 7 6 6 6 7 10
8 9 9 9 8 8 9 9 8 8 8 7 7 6 5 5 6 6 6 5 4 0 2 3 5 12 13 13 10 11 14 11 4 6 7 8 8 8 8 8 10 11 13
9 9 9 9 8 8 8 7 6 6 5 5 5 4 3 4 4 6 7 7 8 3 3 8 10 13 12 9 11 12 9 5 5 6 8 9 8 8 9 9 10 10 12
9 8 7 8 8 7 6 5 5 5 5 4 4 3 2 2 3 3 2 3 6 5 4 6 10 11 9 9 9 7 5 5 6 7 8 9 9 9 9 8 9 10 11
8 7 7 7 7 7 6 5 5 3 4 4 2 2 1 2 4 7 5 3 4 4 3 3 3 4 5 6 5 5 5 5 6 7 8 9 10 10 10 7 7 7 9
7 6 5 5 5 5 5 5 8 7 8 7 4 2 1 4 7 8 9 10 10 10 5 3 4 5 6 6 7 8 7 7 7 8 9 9 10 10 11 10 8 10 11
7 6 5 5 5 4 4 4 3 5 7 8 8 7 6 7 8 9 9 9 8 7 3 4 5 5 6 6 7 7 8 8 8 8 9 9 10 10 11 11 11 11 12
7 7 6 4 4 4 3 3 3 2 3 3 6 8 8 8 8 8 9 7 4 4 3 4 5 6 6 7 7 8 8 9 8 8 9 9 9 10 11 11 11 12 13
6 5 5 4 4 4 4 3 3 3 2 2 3 4 7 7 7 8 7 2 4 5 5 5 6 6 7 7 8 8 8 9 10 9 10 10 10 10 11 11 12 17 15
5 8 7 5 4 4 3 3 2 2 2 2 3 3 4 3 3 4 3 4 4 5 6 6 7 7 7 7 8 8 8 9 10 10 10 10 10 10 12 13 13 13 13
5 6 7 5 3 3 2 2 1 0 1 3 3 5 7 2 3 5 5 5 5 6 7 7 7 8 8 7 8 8 10 10 10 10 10 10 11 11 11 12 13 13 13
5 5 4 4 3 2 2 1 0 1 2 3 4 5 8 4 4 5 5 6 6 6 6 7 7 8 8 8 8 9 10 11 11 10 11 11 11 12 12 12 12 12 13
6 5 4 3 2 2 2 1 1 2 3 4 4 5 5 4 5 5 6 6 7 7 7 7 8 8 9 11 11 9 10 11 11 12 12 13 12 12 12 12 13 14 14
6 5 4 3 2 2 2 2 2 3 3 4 4 5 5 5 6 7 7 7 7 7 9 9 9 11 14 14 14 14 15 17 17 14 15 14 14 13 12 12 12 14 14
5 5 4 3 3 2 2 2 3 3 4 4 5 5 5 6 7 7 7 7 8 8 10 12 12 12 15 17 18 18 21 24 24 20 15 12 13 13 13 13 12 13 14
5 5 4 3 3 3 3 3 3 4 4 5 5 5 6 7 7 7 7 7 8 9 9 11 14 16 19 19 20 22 24 25 25 25 17 11 12 12 13 12 14 13 14
Wind_Direction
304 292 278 265 226 175 164 158 145 136 138 140 138 136 135 134 133 129 127 125 122 119 117 118 118 123 123 121 128 153 181 185 233 259 249 260 270 276 291 295 296 291 290
322 324 326 28 109 119 122 123 126 129 132 133 132 130 129 128 127 126 125 123 123 121 116 113 114 115 111 126 162 195 209 207 223 263 267 267 263 272 275 282 294 296 294
8 27 43 63 84 96 106 114 119 122 122 122 123 122 121 119 117 115 115 113 111 111 111 114 119 120 134 171 202 221 230 233 220 244 267 256 264 272 279 281 282 285 291
39 56 63 69 83 93 97 101 106 111 112 111 111 111 111 110 110 110 109 106 105 103 103 108 116 133 189 214 228 238 242 248 245 251 265 267 266 265 266 282 295 284 289
55 63 67 74 81 85 89 93 96 100 103 105 105 104 104 105 108 109 108 111 111 108 103 101 109 147 232 240 252 245 236 243 252 260 273 279 277 278 278 282 296 297 287
63 68 72 79 82 83 86 91 94 96 98 100 103 104 102 104 111 111 112 109 111 112 110 94 65 45 357 341 315 299 285 270 265 262 273 279 284 280 285 289 294 298 299
68 73 77 82 85 88 90 90 92 94 96 96 96 98 100 108 112 112 112 114 116 115 112 98 63 351 353 308 298 300 299 297 294 290 285 282 285 284 284 285 283 283 286
73 77 83 88 91 92 92 92 92 92 92 93 94 96 99 104 108 112 114 110 107 106 111 136 233 292 296 290 267 268 267 274 284 284 266 269 272 274 270 280 288 290 283
74 78 85 93 96 95 94 93 92 93 90 90 91 90 92 96 104 112 112 105 101 101 119 155 295 285 301 309 305 287 286 284 296 298 295 295 298 301 303 302 297 297 296
74 79 83 87 92 92 92 91 89 91 90 87 81 77 82 82 99 102 109 108 103 94 359 305 316 314 310 315 308 292 294 292 290 297 301 301 298 296 299 289 275 282 289
81 81 81 84 88 91 90 88 90 90 89 86 83 71 61 64 70 73 79 100 108 72 315 301 295 318 319 318 320 313 298 305 310 311 304 299 295 288 283 269 255 261 276
85 83 80 79 84 88 90 87 86 92 93 90 87 72 49 38 47 49 41 27 18 95 298 288 295 320 326 327 326 314 314 324 331 309 300 298 299 300 298 292 283 271 264
87 84 82 79 76 80 87 91 87 86 92 89 83 74 48 28 17 24 18 7 357 351 312 323 329 332 333 332 323 323 332 329 307 301 300 299 296 292 295 295 292 283 275
93 89 86 85 79 71 72 77 86 88 90 88 86 79 50 8 337 324 323 330 340 335 329 335 338 337 335 326 325 325 312 295 298 297 299 299 301 298 295 294 298 305 302
98 92 87 84 86 78 74 78 88 84 116 114 119 129 97 336 334 353 356 338 331 317 349 3 344 334 332 326 317 306 300 304 306 301 300 302 303 302 300 298 289 294 291
107 98 94 92 89 88 84 71 74 80 79 80 86 80 357 353 353 354 348 347 343 341 359 343 326 321 317 317 317 316 313 308 305 303 300 297 298 300 301 300 293 293 294
119 115 106 102 101 99 97 97 81 56 58 51 38 27 14 359 354 348 347 348 346 353 358 318 310 307 305 304 303 303 304 304 302 297 295 295 296 296 297 299 301 298 296
116 121 120 114 113 109 103 97 90 69 29 3 5 5 3 357 352 348 350 356 346 345 312 301 301 301 301 301 301 300 301 303 301 298 296 294 293 295 296 296 297 297 300
120 117 116 114 109 105 99 88 76 66 46 358 338 342 351 348 349 350 358 357 314 311 306 298 295 295 296 295 295 295 294 296 295 297 295 293 292 293 293 294 297 300 302
127 135 129 120 111 102 94 87 73 49 10 337 324 315 318 335 336 330 328 306 300 298 298 297 297 294 293 292 292 292 293 293 294 293 292 292 292 291 292 295 298 300 300
128 135 132 119 114 115 110 104 92 340 307 305 300 304 318 314 305 303 304 299 292 293 295 295 294 294 291 289 289 289 290 291 290 290 292 293 295 296 295 294 295 297 299
130 126 127 130 128 136 141 147 201 276 291 296 298 307 323 323 299 294 294 293 289 285 284 286 288 286 285 286 287 288 289 289 290 292 293 294 296 296 296 296 297 300 301
131 132 131 133 140 162 142 172 254 276 284 288 293 298 304 301 297 294 294 296 296 294 292 287 286 287 285 284 281 278 280 283 286 290 293 295 296 296 297 298 300 304 305
139 144 149 153 157 168 195 237 262 276 284 288 290 292 293 294 296 296 296 296 297 296 293 289 285 284 286 291 290 286 281 282 285 285 285 288 295 299 300 301 302 303 305
146 151 159 170 183 199 223 246 263 277 289 293 294 295 298 298 296 295 295 294 295 293 293 295 290 289 290 292 293 293 293 297 299 300 297 298 300 303 303 303 304 305 306
154 160 167 177 192 208 228 250 265 275 279 285 287 290 293 293 292 293 296 296 297 299 298 298 294 294 296 298 296 298 303 307 310 311 312 305 305 305 307 307 306 307 306
Height
1426 1425 1425 1426 1426 1428 1429 1431 1433 1435 1438 1441 1445 1448 1452 1456 1460 1464 1467 1470 1473 1476 1479 1481 1483 1485 1486 1487 1488 1489 1488 1487 1485 1484 1484 1483 1480 1478 1475 1472 1467 1463 1459
1421 1420 1420 1420 1421 1422 1424 1425 1428 1430 1433 1437 1441 1444 1448 1452 1456 1459 1463 1466 1470 1473 1475 1477 1480 1481 1482 1483 1483 1483 1483 1482 1480 1477 1476 1475 1473 1471 1467 1463 1459 1455 1452
1417 1416 1416 1416 1417 1418 1420 1422 1424 1427 1430 1434 1438 1441 1445 1449 1452 1456 1460 1464 1467 1470 1472 1474 1476 1477 1478 1478 1478 1478 1478 1476 1474 1471 1469 1467 1465 1463 1459 1455 1451 1448 1444
1415 1414 1413 1414 1415 1417 1418 1420 1423 1425 1428 1432 1435 1439 1443 1447 1451 1455 1458 1462 1465 1467 1469 1471 1473 1473 1473 1474 1474 1473 1472 1470 1468 1466 1463 1460 1458 1455 1452 1447 1442 1439 1436
1415 1413 1413 1414 1415 1416 1418 1420 1422 1425 1427 1431 1434 1438 1443 1447 1451 1454 1458 1461 1463 1465 1467 1468 1468 1469 1469 1469 1469 1468 1467 1464 1462 1460 1457 1453 1451 1448 1445 1441 1436 1431 1427
1415 1414 1414 1415 1415 1417 1418 1420 1422 1425 1428 1431 1435 1439 1444 1448 1452 1455 1458 1460 1462 1463 1464 1465 1465 1465 1465 1464 1464 1463 1462 1460 1457 1454 1451 1448 1445 1443 1439 1435 1431 1426 1420
1418 1417 1417 1417 1417 1418 1420 1422 1425 1428 1431 1434 1438 1442 1446 1449 1452 1455 1457 1459 1460 1461 1461 1462 1462 1462 1461 1460 1458 1457 1456 1454 1452 1450 1445 1442 1440 1437 1434 1429 1426 1421 1416
1421 1420 1420 1420 1421 1422 1424 1426 1429 1433 1435 1438 1442 1445 1448 1451 1453 1455 1456 1457 1458 1459 1459 1459 1459 1458 1457 1455 1452 1451 1449 1448 1446 1443 1440 1437 1434 1431 1429 1425 1420 1415 1410
1425 1424 1424 1425 1426 1427 1429 1431 1434 1437 1440 1442 1445 1448 1450 1452 1453 1454 1455 1456 1457 1457 1457 1456 1455 1454 1452 1449 1448 1445 1443 1442 1440 1438 1435 1432 1430 1427 1423 1419 1414 1408 1401
1429 1429 1430 1431 1431 1433 1435 1437 1439 1442 1444 1446 1448 1450 1451 1453 1454 1454 1455 1455 1455 1455 1454 1452 1451 1449 1447 1445 1443 1441 1438 1436 1433 1431 1429 1427 1424 1421 1418 1414 1409 1403 1397
1434 1434 1435 1436 1437 1439 1440 1442 1444 1446 1447 1449 1450 1451 1452 1454 1454 1454 1454 1453 1453 1452 1450 1448 1447 1445 1443 1442 1440 1437 1434 1432 1429 1426 1423 1421 1418 1415 1412 1408 1404 1399 1393
1439 1439 1440 1441 1443 1444 1445 1447 1448 1449 1450 1451 1452 1453 1454 1454 1454 1453 1452 1451 1450 1448 1446 1445 1443 1441 1439 1437 1435 1433 1430 1428 1425 1422 1419 1416 1412 1409 1406 1402 1398 1393 1388
1443 1444 1445 1446 1447 1448 1449 1450 1451 1452 1452 1453 1453 1454 1453 1453 1452 1451 1450 1449 1447 1445 1443 1441 1439 1437 1435 1433 1431 1429 1426 1424 1421 1418 1414 1411 1408 1404 1400 1396 1391 1386 1381
1447 1448 1449 1450 1451 1452 1452 1453 1453 1454 1454 1454 1454 1453 1453 1452 1451 1449 1448 1446 1444 1442 1440 1438 1437 1434 1432 1430 1428 1426 1424 1421 1417 1414 1410 1407 1403 1399 1394 1390 1384 1379 1372
1451 1452 1453 1453 1454 1454 1455 1455 1455 1455 1455 1454 1453 1453 1452 1450 1449 1448 1446 1443 1441 1439 1437 1436 1434 1432 1430 1428 1426 1423 1421 1418 1415 1411 1407 1402 1398 1393 1389 1385 1379 1373 1367
1453 1454 1455 1455 1456 1456 1456 1456 1455 1455 1454 1453 1452 1452 1450 1449 1447 1445 1444 1441 1439 1438 1435 1433 1431 1429 1427 1425 1422 1420 1417 1414 1411 1407 1403 1399 1394 1389 1384 1379 1374 1368 1361
1455 1456 1456 1457 1457 1457 1456 1456 1455 1455 1454 1453 1452 1450 1449 1447 1445 1443 1441 1439 1437 1435 1433 1431 1429 1427 1425 1422 1420 1417 1414 1411 1407 1403 1399 1395 1390 1385 1379 1374 1368 1362 1356
1456 1457 1457 1457 1457 1457 1457 1456 1455 1454 1453 1452 1450 1449 1447 1445 1443 1441 1439 1437 1436 1434 1431 1429 1427 1425 1422 1419 1417 1413 1410 1407 1403 1399 1395 1391 1386 1381 1375 1369 1364 1358 1351
1457 1457 1457 1457 1457 1457 1456 1455 1454 1453 1452 1450 1448 1447 1445 1443 1441 1439 1437 1435 1433 1431 1429 1427 1425 1422 1419 1417 1413 1410 1407 1403 1399 1395 1391 1386 1382 1377 1371 1365 1359 1353 1348
1457 1457 1457 1457 1457 1456 1455 1454 1453 1452 1450 1448 1447 1445 1443 1441 1439 1437 1435 1433 1431 1429 1427 1424 1422 1419 1416 1413 1410 1406 1403 1399 1395 1391 1387 1382 1377 1372 1367 1361 1355 1349 1343
1456 1456 1457 1456 1456 1455 1454 1453 1451 1450 1448 1447 1445 1443 1441 1438 1437 1435 1433 1431 1428 1426 1424 1421 1419 1416 1413 1410 1406 1403 1399 1395 1391 1387 1382 1378 1373 1368 1362 1357 1351 1345 1338
1455 1455 1455 1455 1454 1453 1452 1451 1450 1448 1446 1444 1443 1441 1439 1436 1434 1432 1430 1428 1426 1423 1420 1418 1415 1413 1409 1406 1402 1398 1395 1391 1387 1382 1378 1373 1368 1363 1358 1352 1346 1340 1334
1453 1454 1454 1453 1453 1452 1450 1449 1447 1446 1444 1442 1440 1438 1436 1434 1431 1429 1427 1425 1422 1420 1417 1414 1411 1409 1406 1402 1399 1395 1390 1386 1382 1378 1373 1368 1363 1358 1353 1347 1342 1336 1330
1452 1452 1452 1451 1450 1449 1448 1447 1445 1443 1441 1439 1437 1435 1433 1431 1428 1426 1424 1421 1419 1416 1414 1411 1408 1405 1402 1398 1395 1391 1387 1383 1378 1374 1369 1364 1359 1354 1349 1343 1338 1332 1326
1449 1449 1449 1449 1448 1447 1446 1444 1442 1441 1439 1437 1434 1432 1430 1428 1425 1423 1421 1418 1415 1413 1410 1407 1404 1401 1397 1394 1390 1386 1382 1378 1374 1370 1365 1360 1355 1350 1345 1339 1333 1328 1322
1447 1447 1447 1446 1445 1444 1443 1441 1440 1438 1436 1434 1431 1429 1427 1425 1422 1420 1417 1415 1412 1409 1406 1404 1400 1397 1393 1390 1386 1382 1378 1374 1369 1365 1361 1356 1351 1345 1340 1334 1329 1323 1318